This is the latest recevied weather packets stored in our database for station/object KD4KKF. If no packets are shown the sender has not sent any weather packets the latest 1 day(s).
| Time | Temp. | Humidity | Pressure | Rain* | Wind** | Luminosity | Snow |
|---|---|---|---|---|---|---|---|
| 1777987713 | 18.33° C | 79% | 1013.2 hPa | 0 mm | 0.89 m/s, 267° | 358 W/m² | - |
| 1777987410 | 17.78° C | 83% | 1013.2 hPa | 0 mm | 0 m/s | 329 W/m² | - |
| 1777987107 | 17.78° C | 80% | 1013 hPa | 0 mm | 1.34 m/s, 184° | 148 W/m² | - |
| 1777986805 | 17.22° C | 82% | 1013.2 hPa | 0 mm | 0.45 m/s, 172° | 91 W/m² | - |
| 1777986503 | 17.78° C | 81% | 1013 hPa | 0 mm | 1.34 m/s, 289° | 230 W/m² | - |
| 1777986200 | 17.78° C | 81% | 1013 hPa | 0 mm | 0 m/s | 281 W/m² | - |
| 1777985897 | 17.22° C | 82% | 1013.1 hPa | 0 mm | 0.89 m/s, 149° | 267 W/m² | - |
| 1777985595 | 17.78° C | 82% | 1013 hPa | 0 mm | 0.89 m/s, 192° | 111 W/m² | - |
| 1777985291 | 17.22° C | 82% | 1013.1 hPa | 0 mm | 0 m/s | 212 W/m² | - |
| 1777984988 | 16.67° C | 84% | 1013.1 hPa | 0 mm | 0 m/s | 186 W/m² | - |
| 1777984684 | 16.67° C | 83% | 1012.9 hPa | 0 mm | 0 m/s | 140 W/m² | - |
| 1777984380 | 16.11° C | 86% | 1013.1 hPa | 0 mm | 0 m/s | 143 W/m² | - |
| 1777984077 | 16.11° C | 88% | 1012.8 hPa | 0 mm | 0 m/s | 87 W/m² | - |
| 1777983775 | 15° C | 90% | 1012.9 hPa | 0 mm | 0 m/s | 76 W/m² | - |
| 1777983471 | 14.44° C | 93% | 1012.9 hPa | 0 mm | 0 m/s | 84 W/m² | - |
| 1777983167 | 13.89° C | 95% | 1012.8 hPa | 0 mm | 0 m/s | 64 W/m² | - |
| 1777982864 | 13.89° C | 96% | 1012.7 hPa | 0 mm | 0 m/s | 56 W/m² | - |
| 1777982560 | 13.33° C | 99% | 1012.8 hPa | 0 mm | 0 m/s | 52 W/m² | - |
| 1777982259 | 12.22° C | 99% | 1012.4 hPa | 0 mm | 0 m/s | 48 W/m² | - |
| 1777981957 | 11.67° C | 99% | 1012.4 hPa | 0 mm | 0 m/s | 42 W/m² | - |
| 1777981654 | 11.67° C | 99% | 1012.2 hPa | 0 mm | 0 m/s | 32 W/m² | - |
| 1777981359 | 11.67° C | 99% | 1012.3 hPa | 0 mm | 0 m/s | 27 W/m² | - |
| 1777981046 | 11.67° C | 99% | 1012.3 hPa | 0 mm | 0 m/s | 24 W/m² | - |
| 1777980743 | 11.67° C | 99% | 1012 hPa | 0 mm | 0 m/s | 20 W/m² | - |
| 1777980439 | 11.67° C | 99% | 1012.2 hPa | 0 mm | 0 m/s | 17 W/m² | - |
* Rain latest hour (hover to see other rain measurements)
** Current wind speed in m/s (hover to see current wind gust speed)